Location: Axtheid
(49.6213°N, 11.8205°E)
Time: 04:32:58
(UTC+00:00)

NOSS 3-1 (A) - Pass Details

Date: 24 January 2021
Orbit: 735 x 1477 km, 63.4° (Epoch: 26 February)

Event Time Altitude Azimuth Distance (km) Brightness Sun altitude
Rises 18:47:17 0° 316° (NW) 3,931 7.3 -27.6°
Reaches altitude 10° 18:49:50 10° 313° (NW) 3,070 6.7 -28.0°
Maximum altitude 18:57:11 60° 236° (SW) 1,474 4.5 -29.2°
Enters shadow 19:02:48 23° 165° (SSE) 2,618 5.5 -30.1°
